Location: Observatory Park - Geauga Park District
(41.5832°N, 81.0716°W)
Time: 23:15:45
(UTC-04:00)

N. Korean satellite - Pass Details

Date: 29 September 2021
Orbit: 450 x 495 km, 97.3° (Epoch: 15 October)

Event Time Altitude Azimuth Distance (km) Brightness Sun altitude
Rises 05:30:51 0° 37° (NE) 2,543 11.1 -20.9°
Reaches altitude 10° 05:34:36 10° 78° (ENE) 1,668 10.5 -20.2°
Maximum altitude 05:35:22 11° 91° (E) 1,636 10.3 -20.1°
Drops below altitude 10° 05:36:08 10° 103° (ESE) 1,670 10.2 -19.9°
Sets 05:39:53 0° 144° (SE) 2,554 10.5 -19.3°
